[[{"header":{"parameterUnit":"m.s-1","parameterCategory":1,"la1":30.2991,"la2":30.254,"lo1":-89.0895,"lo2":-89.0444,"dy":0.0017,"dx":0.0017,"nx":28,"ny":28,"refTime":"2023-08-15T21:00:00:Z","depth":0,"parameterNumber":2,"parameterNumberName":"U-component_of_WINDS"},"data":[0,0,0,0,0,0,0,0,0,0,0,0,0,0,0,0,0,0,0,0,0,0,0,0,0,0,0,0,0,0,0,0,0,0,0,0,0,0,0,0,0,0,0,0,0,0,0,0,0,0,0,0,0,0,0,0,0,0,0.2089,0.209,0,0.221,0.2211,0.2212,0.2271,0.2271,0.2271,0.2271,0.2403,0.2407,0.241,0,0,0,0,0,0,0,0,0,0,0,0,0,0.1916,0.1919,0.2088,0.209,0.2091,0.2209,0.2211,0.2213,0.2271,0.2271,0.2271,0.2271,0.2402,0.2406,0.241,0,0,0,0,0,0,0,0,0,0,0,0,0,0.2009,0.1919,0.2088,0.2135,0.214,0.2209,0.2211,0.2213,0.2271,0.2271,0.2271,0.2271,0.2401,0.2406,0.2411,0.2445,0,0,0.2427,0.243,0,0,0,0,0,0,0,0,0.2004,0.2016,0.2126,0.2132,0.2138,0.2225,0.2199,0.2291,0.2271,0.2222,0.2271,0.2271,0.2344,0.2354,0.2378,0.2451,0.2457,0.2428,0.2431,0.2433,0.2435,0,0,0,0,0,0,0,0.1997,0.2011,0.2137,0.2128,0.2135,0.2152,0.2165,0.2216,0.2282,0.2226,0.2231,0.2244,0.2348,0.2372,0.2381,0.2459,0.2428,0.2432,0.2436,0.2438,0.2568,0.2568,0,0,0,0,0,0,0.1982,0.2005,0.2133,0.214,0.2069,0.2155,0.217,0.2197,0.2282,0.2294,0.2244,0.2246,0.2363,0.2375,0.2386,0.2432,0.2433,0.2438,0.2441,0.2567,0.2568,0.2568,0,0,0,0,0,0,0.1978,0.1993,0.2128,0.2074,0.2092,0.2158,0.2188,0.22,0.2224,0.2295,0.2308,0.2256,0.2364,0.2378,0.243,0.2437,0.2441,0.2445,0.2567,0.2568,0.2568,0.2523,0,0,0,0,0,0,0.1973,0.1991,0.2003,0.2074,0.2095,0.2167,0.2189,0.2202,0.2232,0.2237,0.231,0.2322,0.2365,0.2421,0.2435,0.2445,0.245,0.2567,0.2567,0.2568,0.2525,0.2522,0.252,0,0,0,0,0,0.1967,0.1987,0.2003,0.2018,0.2111,0.2167,0.218,0.2226,0.2233,0.2246,0.2292,0.232,0.2434,0.2426,0.2442,0.2453,0.2567,0.2567,0.2568,0.2526,0.2523,0.252,0,0,0,0,0,0,0.1919,0.1997,0.2016,0.2059,0.2106,0.2177,0.2196,0.2221,0.2269,0.2271,0.2329,0.2345,0.2391,0.2428,0.2417,0.2491,0.2503,0.2507,0.2466,0.2464,0.2461,0.2452,0.2454,0,0,0,0,0,0.1912,0.1949,0.2017,0.2049,0.2071,0.2129,0.2156,0.2187,0.2239,0.2259,0.2309,0.236,0.2407,0.2437,0.2485,0.253,0.2548,0.2546,0.2544,0.2542,0.2544,0.2572,0.2572,0.257,0.257,0.257,0,0,0.1902,0.1949,0.1969,0.2041,0.2081,0.212,0.2146,0.2186,0.2217,0.2267,0.2317,0.2355,0.2416,0.2464,0.2488,0.2496,0.2549,0.2542,0.254,0.2544,0.2573,0.2573,0.2573,0.257,0.257,0.257,0,0,0.1901,0.194,0.1971,0.201,0.2069,0.2107,0.2114,0.2182,0.2208,0.2259,0.2297,0.2336,0.2416,0.2458,0.249,0.2505,0.2533,0.2519,0.2509,0.2535,0.2535,0.2535,0.2542,0.2543,0.2522,0.2522,0.2522,0,0.1881,0.1939,0.1985,0.2023,0.2054,0.2098,0.2131,0.2167,0.224,0.2261,0.2268,0.237,0.2414,0.2473,0.2476,0.2501,0.2513,0.2511,0.253,0.2532,0.2533,0.254,0.2542,0.252,0.252,0.252,0.252,0,0.1912,0.1951,0.197,0.2036,0.2069,0.2104,0.2158,0.2186,0.2215,0.2253,0.2305,0.236,0.2419,0.2435,0.2465,0.2499,0.2502,0.2519,0.2532,0.253,0.2537,0.254,0.2517,0.2517,0.2518,0.2518,0,0,0.1885,0.1975,0.1981,0.2011,0.2079,0.2112,0.2151,0.2206,0.223,0.2279,0.2314,0.238,0.2396,0.2432,0.2467,0.2489,0.2499,0.2504,0.2507,0.2502,0.2542,0.2528,0.253,0.2518,0.2518,0.2519,0.2537,0,0.1895,0.1962,0.2005,0.2057,0.2095,0.2137,0.2171,0.2218,0.2255,0.2295,0.2337,0.2383,0.24,0.2422,0.2446,0.2492,0.2508,0.2492,0.2553,0.2555,0.2537,0.2534,0.2521,0.2535,0.254,0.254,0.2541,0,0.1915,0.196,0.2015,0.2078,0.2096,0.2125,0.218,0.2217,0.2271,0.2297,0.2336,0.2371,0.2415,0.2424,0.2487,0.2475,0.2503,0.2529,0.2531,0.2539,0.2548,0.2543,0.254,0.2543,0.2546,0.2545,0.2545,0,0.1891,0.1965,0.2008,0.2033,0.2108,0.2128,0.216,0.2215,0.2245,0.2294,0.2315,0.2369,0.2399,0.2441,0.249,0.2491,0.2549,0.2561,0.2573,0.2571,0.2584,0.2582,0.2586,0.26,0.26,0.26,0.26,0,0.1898,0.193,0.1998,0.2024,0.2062,0.2111,0.2148,0.2185,0.2233,0.2269,0.231,0.2343,0.2405,0.2447,0.2485,0.2532,0.2546,0.2569,0.2579,0.2566,0.2563,0.2585,0.2586,0.26,0.26,0.26,0.26,0,0.1878,0.1924,0.1973,0.204,0.2057,0.2082,0.2141,0.2169,0.2208,0.2253,0.2266,0.2328,0.2379,0.2431,0.2501,0.2527,0.2573,0.2587,0.2554,0.256,0.2569,0.2567,0.2587,0.2593,0.2602,0.2602,0.2602,0,0.1879,0.1905,0.1973,0.1999,0.203,0.2071,0.2102,0.2152,0.2183,0.2247,0.2268,0.2322,0.2367,0.2447,0.25,0.2554,0.2569,0.2573,0.2578,0.2564,0.2571,0.2568,0.2572,0.2571,0.257,0.257,0.257,0,0.1877,0.1899,0.194,0.199,0.2025,0.2068,0.2112,0.2131,0.2191,0.2224,0.2275,0.231,0.238,0.2434,0.2494,0.2531,0.2561,0.2567,0.2573,0.256,0.254,0.2552,0.2549,0.2567,0.2567,0.2568,0.2568,0.2568,0.1869,0.1893,0.1945,0.1991,0.2029,0.2069,0.2098,0.214,0.2183,0.2242,0.227,0.2321,0.2377,0.246,0.2496,0.2539,0.2547,0.2555,0.2558,0.2559,0.2556,0.2532,0.255,0.255,0.255,0.255,0.255,0,0.187,0.1905,0.1946,0.2005,0.2041,0.2063,0.2114,0.2143,0.2187,0.2235,0.2278,0.2338,0.239,0.2446,0.2501,0.2525,0.254,0.2538,0.2537,0.2546,0.2545,0.2534,0.2525,0.2525,0.2525,0.2525,0.2525,0.2525,0.1874,0.1917,0.1945,0.2008,0.2044,0.2092,0.2119,0.2157,0.2196,0.2259,0.2301,0.2337,0.2389,0.2448,0.2497,0.2513,0.2532,0.2526,0.2545,0.2544,0.2546,0.2547,0.2538,0.2529,0.2529,0.2543,0.2543,0.2543]},{"header":{"parameterUnit":"m.s-1","parameterCategory":1,"la1":30.2991,"la2":30.254,"lo1":-89.0895,"lo2":-89.0444,"dy":0.0017,"dx":0.0017,"nx":28,"ny":28,"refTime":"2023-08-15T21:00:00:Z","depth":0,"parameterNumber":3,"parameterNumberName":"V-component_of_WINDS"},"data":[0,0,0,0,0,0,0,0,0,0,0,0,0,0,0,0,0,0,0,0,0,0,0,0,0,0,0,0,0,0,0,0,0,0,0,0,0,0,0,0,0,0,0,0,0,0,0,0,0,0,0,0,0,0,0,0,0,0,3.6197,3.6198,0,3.6254,3.6255,3.6255,3.6259,3.6258,3.6258,3.6257,3.6311,3.6313,3.6315,0,0,0,0,0,0,0,0,0,0,0,0,0,3.6085,3.6087,3.6197,3.6198,3.6199,3.6254,3.6255,3.6255,3.6259,3.6258,3.6258,3.6257,3.631,3.6313,3.6315,0,0,0,0,0,0,0,0,0,0,0,0,0,3.6137,3.6088,3.6197,3.6207,3.6209,3.6254,3.6255,3.6256,3.6259,3.6258,3.6257,3.6256,3.6309,3.6312,3.6315,3.6353,0,0,3.6325,3.6326,0,0,0,0,0,0,0,0,3.6134,3.6141,3.6205,3.6206,3.6208,3.6249,3.6235,3.6288,3.6259,3.624,3.6257,3.6256,3.6291,3.6295,3.6308,3.6355,3.6358,3.6325,3.6327,3.6328,3.6329,0,0,0,0,0,0,0,3.613,3.6138,3.6219,3.6206,3.6208,3.6207,3.6213,3.6245,3.627,3.6241,3.6242,3.6249,3.6291,3.6305,3.6309,3.6359,3.6325,3.6328,3.6329,3.6331,3.6436,3.6437,0,0,0,0,0,0,3.6125,3.6135,3.6218,3.6221,3.6168,3.6209,3.6216,3.6236,3.6269,3.6274,3.625,3.6249,3.63,3.6305,3.6311,3.6355,3.6328,3.6331,3.6333,3.6435,3.6436,3.6437,0,0,0,0,0,0,3.6123,3.6133,3.6215,3.6178,3.6189,3.6212,3.6235,3.6238,3.6252,3.6276,3.6279,3.6259,3.63,3.6307,3.6342,3.6357,3.6332,3.6335,3.6434,3.6435,3.6437,3.6444,0,0,0,0,0,0,3.612,3.6132,3.6148,3.6179,3.6191,3.6248,3.6236,3.624,3.6257,3.6257,3.6286,3.6289,3.6299,3.6337,3.6345,3.6361,3.6337,3.6433,3.6434,3.6436,3.6443,3.6446,3.6449,0,0,0,0,0,3.6116,3.6148,3.6149,3.6159,3.6212,3.6249,3.6255,3.6267,3.6259,3.6274,3.6289,3.6289,3.6354,3.6341,3.635,3.6366,3.6432,3.6434,3.6436,3.6442,3.6445,3.6449,0,0,0,0,0,0,3.6118,3.6152,3.6154,3.6198,3.622,3.6249,3.6269,3.6271,3.6296,3.6294,3.6306,3.6313,3.6347,3.636,3.6345,3.6402,3.6392,3.6396,3.6393,3.6397,3.6399,3.6395,3.634,0,0,0,0,0,3.6124,3.6152,3.618,3.6215,3.6227,3.6246,3.6262,3.6269,3.6293,3.6302,3.6319,3.634,3.6365,3.6382,3.6406,3.6445,3.6449,3.646,3.6463,3.6465,3.6468,3.6486,3.6491,3.6444,3.6444,3.6444,0,0,3.6136,3.6158,3.6175,3.6216,3.6235,3.6262,3.6254,3.6284,3.6303,3.6306,3.634,3.6353,3.6377,3.6414,3.643,3.6426,3.6482,3.6468,3.6469,3.6471,3.6489,3.6493,3.6497,3.6446,3.6446,3.6445,0,0,3.6171,3.6192,3.6222,3.624,3.6268,3.628,3.6287,3.6315,3.6324,3.6359,3.6361,3.6383,3.6427,3.6443,3.6457,3.6494,3.6494,3.6502,3.6516,3.6534,3.6538,3.6541,3.6552,3.6556,3.6505,3.6505,3.6505,0,3.6182,3.6225,3.6237,3.6266,3.6283,3.6287,3.6316,3.6333,3.6367,3.6377,3.6371,3.6424,3.6441,3.648,3.6488,3.65,3.6507,3.6499,3.6536,3.654,3.6543,3.6554,3.6558,3.6506,3.6505,3.6505,3.6505,0,3.6235,3.6264,3.6285,3.6318,3.6337,3.6366,3.638,3.6398,3.6402,3.6414,3.6447,3.6467,3.6494,3.6504,3.6509,3.6542,3.6538,3.6534,3.6523,3.6548,3.6558,3.6563,3.6506,3.6506,3.6506,3.6506,0,0,3.6276,3.6313,3.6321,3.6334,3.6363,3.6385,3.6412,3.644,3.6453,3.6475,3.6497,3.6532,3.6528,3.6544,3.655,3.6566,3.6591,3.6559,3.656,3.6563,3.6626,3.6628,3.6633,3.6591,3.6592,3.6593,3.6624,0,3.6313,3.6364,3.6374,3.6417,3.6442,3.6445,3.6468,3.6487,3.6498,3.6519,3.653,3.6554,3.6548,3.6557,3.6573,3.6585,3.6603,3.6583,3.6609,3.661,3.6603,3.6639,3.6642,3.6671,3.6628,3.6629,3.6629,0,3.6364,3.6387,3.6433,3.6456,3.6467,3.6488,3.6512,3.6533,3.6553,3.6559,3.6576,3.6579,3.6605,3.6593,3.6627,3.6612,3.6624,3.6631,3.6632,3.6635,3.6621,3.6641,3.6681,3.6684,3.6636,3.6636,3.6635,0,3.6387,3.6429,3.6461,3.6473,3.6501,3.6515,3.6527,3.6547,3.6562,3.6582,3.6591,3.6614,3.6626,3.6643,3.6651,3.6642,3.6684,3.6673,3.6688,3.6688,3.6697,3.6696,3.6738,3.6706,3.6705,3.6705,3.6705,0,3.6427,3.6454,3.6471,3.6491,3.652,3.6531,3.6559,3.657,3.6587,3.6607,3.661,3.6628,3.6639,3.6658,3.6665,3.6691,3.6697,3.6701,3.6702,3.67,3.67,3.6708,3.6705,3.6707,3.6706,3.6706,3.6706,0,3.6458,3.6471,3.6505,3.6528,3.6534,3.6555,3.6574,3.6591,3.6601,3.6626,3.6632,3.6647,3.6669,3.668,3.6707,3.6711,3.674,3.6741,3.6734,3.6734,3.6748,3.6746,3.6796,3.6802,3.6766,3.6767,3.6767,0,3.6482,3.6503,3.6528,3.6542,3.6554,3.6577,3.6592,3.6601,3.6616,3.6639,3.6653,3.6675,3.6694,3.6729,3.6741,3.6762,3.6762,3.6777,3.6765,3.6761,3.676,3.6759,3.676,3.678,3.678,3.678,3.6781,0,3.6524,3.6529,3.6551,3.6573,3.6591,3.6609,3.6627,3.6638,3.665,3.6666,3.6689,3.6703,3.6731,3.6752,3.6773,3.6783,3.6783,3.6784,3.6789,3.6787,3.6781,3.6783,3.6739,3.6783,3.6783,3.6783,3.6783,3.6782,3.6552,3.6569,3.6589,3.6612,3.6626,3.6642,3.6659,3.667,3.669,3.6713,3.6717,3.6741,3.6757,3.6785,3.6796,3.6813,3.6809,3.6816,3.6818,3.6819,3.6819,3.6779,3.6817,3.6817,3.6817,3.6817,3.6817,0,3.6592,3.6604,3.6625,3.665,3.6667,3.6666,3.6685,3.6699,3.672,3.6736,3.6754,3.6778,3.6799,3.6811,3.6831,3.6842,3.6843,3.6847,3.6846,3.6848,3.6822,3.6816,3.6846,3.6846,3.6846,3.6846,3.6846,3.6846,3.6616,3.6644,3.665,3.6685,3.6696,3.672,3.6731,3.6744,3.6757,3.6784,3.6801,3.6809,3.6823,3.6843,3.6861,3.6864,3.687,3.6875,3.6878,3.6853,3.685,3.6847,3.6841,3.6877,3.6877,3.6902,3.6902,3.6902]}]]